Regional Weather Roundup
Issued by NWS Upton, NY

Current Version | Previous Version | Text Only | Print | Product List | Glossary On
Versions: 1 2 3 4 5 6 7 8 9 10 11 12 13 14 15 16 17 18 19 20 21 22 23 24 25 26 27 28 29 30 31 32 33 34 35 36 37 38 39 40 41 42 43 44 45 46 47 48 49 50
000
ASUS41 KOKX 231505
RWROKX

REGIONAL WEATHER ROUNDUP
NATIONAL WEATHER SERVICE NEW YORK NY
1000 AM EST SUN NOV 23 2014

NOTE: "FAIR" INDICATES FEW OR NO CLOUDS BELOW 12,000 FEET WITH NO
SIGNIFICANT WEATHER AND/OR OBSTRUCTIONS TO VISIBILITY.

NYZ071-072-176-178-NJZ106-104-231600-
NEW YORK CITY METRO AREA


CITY           SKY/WX    TMP DP  RH WIND       PRES   REMARKS
CENTRAL PARK   CLOUDY    47  21  35 VRB3      30.23S
LAGUARDIA APRT PTSUNNY   47  23  38 SW8       30.21S
KENNEDY INTL   PTSUNNY   48  25  40 SW14      30.23F
NEWARK/LIBERTY PTSUNNY   47  23  38 SW10      30.21F
BRNX BOT. GARD   N/A    N/A N/A N/A S5        30.20F
TETERBORO      CLOUDY    46  22  38 S6        30.20S
$$

NYZ177-179-078>081-231600-
LONG ISLAND NEW YORK

CITY           SKY/WX    TMP DP  RH WIND       PRES   REMARKS
FARMINGDALE    CLOUDY    50  27  40 W13       30.22S
ISLIP          PTSUNNY   50  28  42 SW17G23   30.20S
SHIRLEY        PTSUNNY   49  29  46 SW13G24   30.22S
WESTHAMPTON    MOSUNNY   50  29  44 SW15G24   30.23R
MONTAUK POINT    N/A     52  30  43 SW9       30.21S
$$

NYZ052-065-067-231600-
HUDSON VALLEY

CITY           SKY/WX    TMP DP  RH WIND       PRES   REMARKS
WHITE PLAINS   PTSUNNY   46  21  37 SW5       30.18S
NEWBURGH       MOSUNNY   46  25  42 W8        30.18F
MONTGOMERY     MOSUNNY   47  22  37 SW8       30.17S
POUGHKEEPSIE   MOSUNNY   48  22  35 SW8       30.18S
ALBANY         PTSUNNY   46  27  47 S7        30.14R
$$

NJZ001-105-106-008-010-013-015-019>022-104-231600-
NEW JERSEY

CITY           SKY/WX    TMP DP  RH WIND       PRES   REMARKS
NEWARK/LIBERTY PTSUNNY   47  23  38 SW10      30.21F
TETERBORO      CLOUDY    46  22  38 S6        30.20S
CALDWELL       CLOUDY    44  21  40 VRB3      30.21F
MORRISTOWN     CLOUDY    45  23  42 SW6       30.21F
SOMERVILLE     CLOUDY    46  23  40 VRB3      30.21S
SUSSEX         CLOUDY    44  21  40 SW7       30.18F
ANDOVER          N/A     44  21  40 SW5       30.18F
TRENTON        PTSUNNY   46  25  43 SW10      30.22F
MILLVILLE      PTSUNNY   46  27  47 SW7       30.25S
ATLANTIC CITY  PTSUNNY   49  27  42 SW9       30.24F
WRIGHTSTOWN    PTSUNNY   49  22  35 W10       30.21S
TOMS RIVER     PTSUNNY   48  23  37 W7        30.24S
BELMAR         MOSUNNY   48  21  34 W9        30.22F
$$

PAZ047>061-062-071-231600-
EASTERN PENNSYLVANIA

CITY           SKY/WX    TMP DP  RH WIND       PRES   REMARKS
PHILADELPHIA   PTSUNNY   48  23  37 SW12      30.23F
ALLENTOWN      PTSUNNY   45  22  40 S5        30.20F
SCRANTON       CLOUDY    45  20  36 SW5       30.16F
$$

CTZ002-004>006-009-010-012-RIZ004-006-007-MAZ004-011-015-231600-
SOUTHERN NEW ENGLAND
 IN CT

CITY           SKY/WX    TMP DP  RH WIND       PRES   REMARKS
BRADLEY INTL   MOSUNNY   50  23  34 S8        30.15S
HARTFORD       SUNNY     47  23  38 S8        30.18S
DANBURY        PTSUNNY   47  22  37 W9        30.18F
WTRBRY/OXFORD  SUNNY     46  25  42 SW6       30.18F
BRIDGEPORT     PTSUNNY   49  33  54 SW12      30.19F
MERIDEN        MOSUNNY   49  22  34 VRB5      30.18F
NEW HAVEN      MOSUNNY   50  31  48 SW6       30.20R
CHESTER        FAIR      48  32  53 W10G18    30.18S
GROTON         PTSUNNY   48  32  53 SW13      30.19S HAZE
WILLIMANTIC    CLOUDY    48  23  37 SW6       30.18S

 IN RI

CITY           SKY/WX    TMP DP  RH WIND       PRES   REMARKS
PROVIDENCE     PTSUNNY   49  31  49 SW7       30.18S
BLOCK ISLAND   PTSUNNY   52  32  46 SW18G28   30.19F
WESTERLY       CLOUDY    48  30  49 SW10      30.20S

 IN MA

CITY           SKY/WX    TMP DP  RH WIND       PRES   REMARKS
BOSTON         PTSUNNY   50  29  44 SW15      30.14R
WORCESTER      SUNNY     46  27  47 SW16      30.13R
WESTFIELD      SUNNY     47  26  44 VRB5      30.15S
PROVINCETOWN   CLOUDY    50  36  57 SW14      30.15S
NANTUCKET      MOSUNNY   57  41  55 SW24G33   30.19S
$$

ANZ330-335-338-340-345-350-353-355-231600-
COASTAL MARINE OBSERVATIONS


STATION/POSITION TIME  SKY/WX   TEMP    WIND        PRES    VSBY  WAVE
                                AIR SEA DIR/SP/G                  HT/PER
                 (UTC)          (F)     (DEG/KT/KT) (MB)    (MI)  (FT/S)
NY HARB ENTRANCE 1500            48 53  240/ 14/ 17 1023.8          4/ 7
4S FIRE IS       1500               52                N/A           6/ 7
20S FIRE ISLAND  1500            50 54  250/ 17/ 21 1023.1          6/ 7
23SW MTP         1500                                 N/A           8/ 8
HUDSON CANYON    1500            56 58  250/ 17/ 19 1024.4
EXECUTION ROCKS  NOT AVBL
WESTERN LI SOUND NOT AVBL
CENTRAL LI SOUND NOT AVBL
EASTERN LI SOUND NOT AVBL
ROBBINS REEF     1500            46     230/  9/ 12 1021.9
$$


>>>>>>>>>>>>>>>>>>>>>>>>>>>> KEY <<<<<<<<<<<<<<<<<<<<<<<<<<<
>                                                          <
>     SKY/WX - SKY CONDITION/PRESENT WEATHER               <
>     TMP    - TEMPERATURE IN FAHRENHEIT                   <
>     DP     - DEWPOINT IN FAHRENHEIT                      <
>     RH     - RELATIVE HUMIDITY IN PERCENT                <
>     WIND   - DIRECTION AND SPEED IN MPH                  <
>     PRES   - MEAN SEA LEVEL PRESSURE IN INCHES OF HG     <
>     WCI    - WIND CHILL INDEX                            <
>     VSB    - VISIBILITY IN MILES                         <
>     HX     - HEAT INDEX                                  <
>     TC     - TEMPERATURE IN CELSIUS                      <
>     VRB    - VARIABLE WIND DIRECTION                     <
>                                                          <
>>>>>>>>>>>>>>>>>>>>>>>>>>>> KEY <<<<<<<<<<<<<<<<<<<<<<<<<<<





USA.gov is the U.S. government's official web portal to all federal, state and local government web resources and services.